• In Austria
  • List of Countries
  • For 7 days
  • Water Temperature
  • Satellite Maps
  • Weather Map
  • News
  • Weather Widgets
  • user-avatar
    Login

    Hourly Weather Silistra

    Today, 12 December, Tuesday

    Time Temperature Precipitation Wind Pressure Humidity
    00:00 +4°C° 0 mm 3 mps 758 mmHg 65%
    01:00 +4°C° 0 mm 3 mps 758 mmHg 66%
    02:00 +4°C° 0 mm 2 mps 757 mmHg 70%
    03:00 +4°C° 0 mm 2 mps 757 mmHg 71%
    04:00 +3°C° 0 mm 3 mps 757 mmHg 72%
    05:00 +3°C° 0 mm 3 mps 757 mmHg 72%
    06:00 +3°C° 0 mm 3 mps 757 mmHg 72%
    07:00 +3°C° 0 mm 3 mps 757 mmHg 71%
    08:00 +4°C° 0 mm 2 mps 757 mmHg 66%
    09:00 +5°C° 0 mm 3 mps 757 mmHg 59%
    10:00 +8°C° 0 mm 3 mps 757 mmHg 53%
    11:00 +10°C° 0 mm 4 mps 757 mmHg 47%
    12:00 +11°C° 0 mm 4 mps 757 mmHg 45%
    13:00 +12°C° 0 mm 4 mps 757 mmHg 43%
    14:00 +14°C° 0 mm 3 mps 756 mmHg 41%
    15:00 +12°C° 0 mm 3 mps 756 mmHg 45%
    16:00 +11°C° 0 mm 3 mps 757 mmHg 50%
    17:00 +10°C° 0 mm 3 mps 757 mmHg 55%
    18:00 +9°C° 0 mm 3 mps 757 mmHg 57%
    19:00 +9°C° 0 mm 3 mps 757 mmHg 59%
    20:00 +9°C° 0 mm 3 mps 757 mmHg 62%
    21:00 +8°C° 0 mm 3 mps 758 mmHg 64%
    22:00 +8°C° 0 mm 3 mps 758 mmHg 66%
    23:00 +7°C° 0 mm 4 mps 758 mmHg 67%

    Tomorrow, 13 December, Wednesday

    Time Temperature Precipitation Wind Pressure Humidity
    00:00 +7°C° 0 mm 4 mps 758 mmHg 69%
    01:00 +7°C° 0 mm 4 mps 758 mmHg 70%
    02:00 +7°C° 0 mm 4 mps 758 mmHg 72%
    03:00 +7°C° 0 mm 4 mps 758 mmHg 73%
    04:00 +7°C° 0 mm 4 mps 758 mmHg 74%
    05:00 +7°C° 0 mm 4 mps 758 mmHg 75%
    06:00 +7°C° 0 mm 4 mps 758 mmHg 76%
    07:00 +6°C° 0 mm 4 mps 758 mmHg 77%
    08:00 +6°C° 0 mm 4 mps 758 mmHg 78%
    09:00 +8°C° 0 mm 4 mps 758 mmHg 72%
    10:00 +11°C° 0 mm 4 mps 758 mmHg 67%
    11:00 +12°C° 0 mm 4 mps 758 mmHg 61%
    12:00 +13°C° 0 mm 4 mps 758 mmHg 59%
    13:00 +14°C° 0 mm 4 mps 757 mmHg 57%
    14:00 +15°C° 0 mm 4 mps 757 mmHg 55%
    15:00 +13°C° 0 mm 3 mps 757 mmHg 59%
    16:00 +12°C° 0 mm 3 mps 757 mmHg 64%
    17:00 +12°C° 0 mm 2 mps 757 mmHg 69%
    18:00 +12°C° 0 mm 2 mps 756 mmHg 70%
    19:00 +10°C° 0 mm 2 mps 756 mmHg 70%
    20:00 +10°C° 0 mm 2 mps 756 mmHg 71%
    21:00 +10°C° 0 mm 2 mps 756 mmHg 71%
    22:00 +10°C° 0 mm 2 mps 755 mmHg 71%
    23:00 +10°C° 0 mm 2 mps 755 mmHg 72%

    Day after tomorrow, 14 December, Thursday

    Time Temperature Precipitation Wind Pressure Humidity
    00:00 +11°C° 0 mm 1 mps 755 mmHg 72%
    01:00 +10°C° 0 mm 1 mps 755 mmHg 73%
    02:00 +10°C° 0 mm 1 mps 754 mmHg 73%
    03:00 +10°C° 0 mm 1 mps 754 mmHg 75%
    04:00 +9°C° 0 mm 2 mps 754 mmHg 77%
    05:00 +9°C° 0 mm 2 mps 754 mmHg 79%
    06:00 +9°C° 0.1 mm 2 mps 754 mmHg 82%
    07:00 +8°C° 0.1 mm 2 mps 754 mmHg 84%
    08:00 +8°C° 0.1 mm 2 mps 754 mmHg 87%
    09:00 +9°C° 0 mm 3 mps 754 mmHg 82%
    10:00 +10°C° 0 mm 4 mps 755 mmHg 78%
    11:00 +10°C° 0 mm 5 mps 755 mmHg 73%
    12:00 +10°C° 0 mm 5 mps 754 mmHg 68%
    13:00 +12°C° 0 mm 5 mps 754 mmHg 63%
    14:00 +12°C° 0 mm 5 mps 754 mmHg 57%
    15:00 +11°C° 0 mm 4 mps 754 mmHg 60%
    16:00 +10°C° 0 mm 4 mps 754 mmHg 63%
    17:00 +9°C° 0 mm 3 mps 754 mmHg 66%
    18:00 +9°C° 0 mm 3 mps 754 mmHg 69%
    19:00 +8°C° 0 mm 3 mps 755 mmHg 72%
    20:00 +8°C° 0 mm 3 mps 755 mmHg 75%
    21:00 +8°C° 0 mm 3 mps 755 mmHg 77%
    22:00 +8°C° 0 mm 3 mps 755 mmHg 80%
    23:00 +7°C° 0 mm 3 mps 756 mmHg 83%

    15 December, Friday

    Time Temperature Precipitation Wind Pressure Humidity
    00:00 +7°C° 0 mm 3 mps 756 mmHg 84%
    01:00 +7°C° 0 mm 3 mps 755 mmHg 85%
    02:00 +7°C° 0 mm 3 mps 755 mmHg 85%
    03:00 +7°C° 0 mm 3 mps 755 mmHg 85%
    04:00 +7°C° 0 mm 3 mps 755 mmHg 84%
    05:00 +7°C° 0 mm 3 mps 755 mmHg 84%
    06:00 +7°C° 0 mm 3 mps 755 mmHg 84%
    07:00 +7°C° 0 mm 2 mps 755 mmHg 84%
    08:00 +7°C° 0 mm 2 mps 755 mmHg 85%
    09:00 +8°C° 0 mm 3 mps 755 mmHg 77%
    10:00 +10°C° 0 mm 3 mps 755 mmHg 70%
    11:00 +12°C° 0 mm 3 mps 755 mmHg 62%
    12:00 +13°C° 0 mm 4 mps 754 mmHg 59%
    13:00 +14°C° 0 mm 4 mps 754 mmHg 55%
    14:00 +15°C° 0 mm 4 mps 753 mmHg 52%
    15:00 +14°C° 0 mm 5 mps 753 mmHg 57%
    16:00 +13°C° 0 mm 5 mps 752 mmHg 61%
    17:00 +12°C° 0 mm 5 mps 752 mmHg 66%
    18:00 +10°C° 0 mm 5 mps 752 mmHg 67%
    19:00 +11°C° 0 mm 4 mps 752 mmHg 68%
    20:00 +11°C° 0 mm 4 mps 752 mmHg 69%
    21:00 +10°C° 0 mm 4 mps 751 mmHg 69%
    22:00 +10°C° 0 mm 4 mps 751 mmHg 69%
    23:00 +10°C° 0 mm 4 mps 751 mmHg 69%

    16 December, Saturday

    Time Temperature Precipitation Wind Pressure Humidity
    00:00 +10°C° 0 mm 4 mps 751 mmHg 72%
    01:00 +8°C° 0 mm 4 mps 750 mmHg 75%
    02:00 +8°C° 0 mm 4 mps 750 mmHg 77%
    03:00 +8°C° 0 mm 4 mps 750 mmHg 78%
    04:00 +8°C° 0 mm 4 mps 750 mmHg 78%
    05:00 +9°C° 0 mm 3 mps 749 mmHg 79%
    06:00 +9°C° 0 mm 3 mps 750 mmHg 78%
    07:00 +9°C° 0 mm 3 mps 750 mmHg 78%
    08:00 +9°C° 0 mm 3 mps 750 mmHg 78%
    09:00 +10°C° 0 mm 3 mps 750 mmHg 71%
    10:00 +12°C° 0 mm 4 mps 751 mmHg 65%
    11:00 +13°C° 0 mm 4 mps 751 mmHg 59%
    12:00 +13°C° 0 mm 4 mps 751 mmHg 58%
    13:00 +13°C° 0 mm 4 mps 751 mmHg 56%
    14:00 +13°C° 0 mm 4 mps 751 mmHg 55%
    15:00 +12°C° 0 mm 3 mps 752 mmHg 59%
    16:00 +11°C° 0 mm 3 mps 752 mmHg 62%
    17:00 +10°C° 0 mm 3 mps 753 mmHg 66%
    18:00 +10°C° 0 mm 3 mps 753 mmHg 68%
    19:00 +9°C° 0 mm 2 mps 754 mmHg 70%
    20:00 +9°C° 0 mm 2 mps 754 mmHg 72%
    21:00 +9°C° 0.2 mm 2 mps 754 mmHg 75%
    22:00 +8°C° 0.2 mm 2 mps 754 mmHg 77%
    23:00 +9°C° 0.2 mm 1 mps 755 mmHg 80%

    17 December, Sunday

    Time Temperature Precipitation Wind Pressure Humidity
    00:00 +9°C° 0.9 mm 1 mps 755 mmHg 83%
    01:00 +7°C° 0.9 mm 2 mps 755 mmHg 87%
    02:00 +7°C° 0.9 mm 2 mps 755 mmHg 90%
    03:00 +7°C° 1.2 mm 2 mps 754 mmHg 91%
    04:00 +7°C° 1.2 mm 3 mps 754 mmHg 92%
    05:00 +7°C° 1.2 mm 3 mps 753 mmHg 93%
    06:00 +6°C° 1.1 mm 4 mps 754 mmHg 92%
    07:00 +6°C° 1.1 mm 4 mps 754 mmHg 91%
    08:00 +6°C° 1.1 mm 5 mps 754 mmHg 91%
    09:00 +5°C° 0.9 mm 5 mps 754 mmHg 88%
    10:00 +4°C° 0.9 mm 6 mps 754 mmHg 86%
    11:00 +4°C° 0.9 mm 6 mps 755 mmHg 84%
    12:00 +4°C° 0.3 mm 6 mps 755 mmHg 81%
    13:00 +4°C° 0.3 mm 6 mps 755 mmHg 79%
    14:00 +4°C° 0.3 mm 6 mps 755 mmHg 76%
    15:00 +4°C° 0.2 mm 6 mps 756 mmHg 76%
    16:00 +5°C° 0.2 mm 5 mps 757 mmHg 76%
    17:00 +5°C° 0.2 mm 5 mps 757 mmHg 75%
    18:00 +3°C° 0.4 mm 5 mps 758 mmHg 75%
    19:00 +3°C° 0.4 mm 5 mps 758 mmHg 75%
    20:00 +3°C° 0.4 mm 5 mps 759 mmHg 74%
    21:00 +3°C° 0.3 mm 5 mps 759 mmHg 74%
    22:00 +3°C° 0.3 mm 5 mps 759 mmHg 73%
    23:00 +3°C° 0.3 mm 4 mps 760 mmHg 73%
    Show more